When you browse on this site, cookies collect data to enhance your experience and personalize the content and advertising you see.
Visit our Privacy Policy to learn more. By continuing to use the site, you agree to this use of cookies and data.
  • In Spain
  • List of Countries
  • For 7 days
  • Water Temperature
  • Weather Map
  • Weather Widgets
  • user-avatar
    Login

    Hourly Weather Ordino

    Today, 21 August, Wednesday

    Time Temperature Precipitation Wind Pressure Humidity
    00:00 +8°C° 0 mm 2 mps 637 mmHg 81%
    01:00 +7°C° 0 mm 2 mps 636 mmHg 78%
    02:00 +7°C° 0 mm 2 mps 636 mmHg 76%
    03:00 +7°C° 0 mm 2 mps 636 mmHg 73%
    04:00 +8°C° 0 mm 2 mps 636 mmHg 69%
    05:00 +9°C° 0 mm 1 mps 636 mmHg 65%
    06:00 +10°C° 0 mm 1 mps 636 mmHg 60%
    07:00 +13°C° 0 mm 1 mps 637 mmHg 52%
    08:00 +15°C° 0 mm 1 mps 638 mmHg 44%
    09:00 +19°C° 0 mm 1 mps 639 mmHg 36%
    10:00 +20°C° 0 mm 1 mps 639 mmHg 34%
    11:00 +21°C° 0 mm 1 mps 639 mmHg 33%
    12:00 +23°C° 0 mm 1 mps 640 mmHg 31%
    13:00 +22°C° 0 mm 1 mps 639 mmHg 33%
    14:00 +22°C° 0 mm 1 mps 639 mmHg 35%
    15:00 +22°C° 0 mm 1 mps 638 mmHg 37%
    16:00 +20°C° 0 mm 1 mps 638 mmHg 47%
    17:00 +18°C° 0 mm 1 mps 637 mmHg 58%
    18:00 +16°C° 0 mm 1 mps 637 mmHg 68%
    19:00 +15°C° 0 mm 1 mps 636 mmHg 69%
    20:00 +14°C° 0 mm 1 mps 636 mmHg 71%
    21:00 +13°C° 0 mm 1 mps 636 mmHg 73%
    22:00 +12°C° 0 mm 1 mps 636 mmHg 70%
    23:00 +12°C° 0 mm 1 mps 636 mmHg 68%

    Tomorrow, 22 August, Thursday

    Time Temperature Precipitation Wind Pressure Humidity
    00:00 +12°C° 0 mm 1 mps 636 mmHg 65%
    01:00 +12°C° 0 mm 1 mps 636 mmHg 60%
    02:00 +11°C° 0 mm 1 mps 636 mmHg 54%
    03:00 +10°C° 0 mm 2 mps 635 mmHg 49%
    04:00 +10°C° 0 mm 2 mps 635 mmHg 46%
    05:00 +10°C° 0 mm 2 mps 636 mmHg 44%
    06:00 +9°C° 0 mm 2 mps 636 mmHg 42%
    07:00 +13°C° 0 mm 1 mps 637 mmHg 36%
    08:00 +16°C° 0 mm 1 mps 638 mmHg 31%
    09:00 +20°C° 0 mm 1 mps 639 mmHg 26%
    10:00 +22°C° 0 mm 1 mps 640 mmHg 25%
    11:00 +23°C° 0 mm 1 mps 640 mmHg 24%
    12:00 +24°C° 0 mm 1 mps 640 mmHg 23%
    13:00 +24°C° 0 mm 1 mps 640 mmHg 25%
    14:00 +24°C° 0 mm 1 mps 640 mmHg 27%
    15:00 +24°C° 0 mm 2 mps 639 mmHg 28%
    16:00 +22°C° 0 mm 1 mps 638 mmHg 39%
    17:00 +20°C° 0 mm 1 mps 638 mmHg 50%
    18:00 +18°C° 0 mm 1 mps 637 mmHg 61%
    19:00 +15°C° 0 mm 1 mps 637 mmHg 63%
    20:00 +14°C° 0 mm 1 mps 637 mmHg 66%
    21:00 +13°C° 0 mm 1 mps 636 mmHg 68%
    22:00 +12°C° 0 mm 1 mps 636 mmHg 68%
    23:00 +12°C° 0 mm 1 mps 636 mmHg 68%

    Day after tomorrow, 23 August, Friday

    Time Temperature Precipitation Wind Pressure Humidity
    00:00 +12°C° 0 mm 1 mps 636 mmHg 69%
    01:00 +12°C° 0 mm 1 mps 636 mmHg 72%
    02:00 +12°C° 0 mm 1 mps 636 mmHg 76%
    03:00 +12°C° 0 mm 1 mps 636 mmHg 79%
    04:00 +12°C° 0 mm 1 mps 636 mmHg 80%
    05:00 +12°C° 0 mm 1 mps 636 mmHg 80%
    06:00 +13°C° 0 mm 1 mps 636 mmHg 80%
    07:00 +16°C° 0 mm 1 mps 637 mmHg 67%
    08:00 +19°C° 0 mm 1 mps 638 mmHg 55%
    09:00 +22°C° 0 mm 1 mps 640 mmHg 42%
    10:00 +23°C° 0 mm 1 mps 640 mmHg 38%
    11:00 +24°C° 0 mm 1 mps 640 mmHg 34%
    12:00 +25°C° 0 mm 2 mps 640 mmHg 31%
    13:00 +25°C° 0 mm 2 mps 640 mmHg 32%
    14:00 +25°C° 0 mm 2 mps 639 mmHg 33%
    15:00 +25°C° 0 mm 2 mps 639 mmHg 34%
    16:00 +24°C° 0 mm 1 mps 638 mmHg 43%
    17:00 +22°C° 0 mm 1 mps 637 mmHg 51%
    18:00 +20°C° 0 mm 1 mps 637 mmHg 60%
    19:00 +19°C° 0 mm 1 mps 636 mmHg 63%
    20:00 +16°C° 0 mm 1 mps 636 mmHg 66%
    21:00 +15°C° 0 mm 1 mps 636 mmHg 69%
    22:00 +14°C° 0 mm 1 mps 636 mmHg 69%
    23:00 +14°C° 0 mm 1 mps 636 mmHg 69%

    24 August, Saturday

    Time Temperature Precipitation Wind Pressure Humidity
    00:00 +14°C° 0 mm 1 mps 635 mmHg 69%
    01:00 +14°C° 0 mm 1 mps 635 mmHg 70%
    02:00 +14°C° 0 mm 1 mps 635 mmHg 70%
    03:00 +14°C° 0 mm 1 mps 635 mmHg 71%
    04:00 +14°C° 0 mm 1 mps 635 mmHg 70%
    05:00 +14°C° 0 mm 1 mps 635 mmHg 70%
    06:00 +14°C° 0 mm 1 mps 635 mmHg 69%
    07:00 +18°C° 0 mm 1 mps 636 mmHg 59%
    08:00 +21°C° 0 mm 1 mps 638 mmHg 49%
    09:00 +24°C° 0 mm 1 mps 639 mmHg 39%
    10:00 +25°C° 0 mm 1 mps 639 mmHg 36%
    11:00 +26°C° 0 mm 1 mps 639 mmHg 33%
    12:00 +27°C° 0 mm 2 mps 639 mmHg 29%
    13:00 +26°C° 0 mm 2 mps 639 mmHg 31%
    14:00 +26°C° 0 mm 1 mps 638 mmHg 33%
    15:00 +26°C° 0 mm 1 mps 638 mmHg 35%
    16:00 +24°C° 0 mm 1 mps 637 mmHg 42%
    17:00 +22°C° 0 mm 1 mps 636 mmHg 50%
    18:00 +20°C° 0 mm 1 mps 636 mmHg 57%
    19:00 +19°C° 0 mm 1 mps 636 mmHg 59%
    20:00 +18°C° 0 mm 1 mps 635 mmHg 61%
    21:00 +16°C° 0 mm 1 mps 635 mmHg 63%
    22:00 +16°C° 0 mm 1 mps 635 mmHg 62%
    23:00 +15°C° 0 mm 1 mps 635 mmHg 61%

    25 August, Sunday

    Time Temperature Precipitation Wind Pressure Humidity
    00:00 +15°C° 0 mm 1 mps 635 mmHg 60%
    01:00 +15°C° 0 mm 1 mps 635 mmHg 59%
    02:00 +15°C° 0 mm 1 mps 634 mmHg 58%
    03:00 +15°C° 0 mm 1 mps 634 mmHg 56%
    04:00 +15°C° 0 mm 1 mps 634 mmHg 57%
    05:00 +15°C° 0 mm 1 mps 634 mmHg 58%
    06:00 +15°C° 0 mm 1 mps 635 mmHg 59%
    07:00 +19°C° 0 mm 1 mps 636 mmHg 52%
    08:00 +22°C° 0 mm 1 mps 637 mmHg 46%
    09:00 +25°C° 0 mm 1 mps 638 mmHg 39%
    10:00 +26°C° 0 mm 1 mps 638 mmHg 37%
    11:00 +26°C° 0 mm 1 mps 638 mmHg 34%
    12:00 +27°C° 0 mm 2 mps 638 mmHg 32%
    13:00 +26°C° 0.1 mm 2 mps 637 mmHg 39%
    14:00 +24°C° 0.1 mm 2 mps 637 mmHg 46%
    15:00 +23°C° 0.1 mm 1 mps 636 mmHg 53%
    16:00 +20°C° 0.8 mm 2 mps 635 mmHg 61%
    17:00 +18°C° 0.8 mm 2 mps 635 mmHg 70%
    18:00 +17°C° 0.8 mm 2 mps 634 mmHg 78%
    19:00 +16°C° 0.2 mm 2 mps 635 mmHg 78%
    20:00 +15°C° 0.2 mm 2 mps 635 mmHg 78%
    21:00 +14°C° 0.2 mm 1 mps 635 mmHg 77%
    22:00 +14°C° 0 mm 1 mps 635 mmHg 75%
    23:00 +14°C° 0 mm 2 mps 635 mmHg 73%

    26 August, Monday

    Time Temperature Precipitation Wind Pressure Humidity
    00:00 +14°C° 0 mm 2 mps 636 mmHg 71%
    01:00 +14°C° 0 mm 1 mps 635 mmHg 71%
    02:00 +14°C° 0 mm 1 mps 635 mmHg 71%
    03:00 +14°C° 0 mm 1 mps 635 mmHg 70%
    04:00 +14°C° 0 mm 1 mps 636 mmHg 70%
    05:00 +14°C° 0 mm 1 mps 636 mmHg 71%
    06:00 +15°C° 0 mm 1 mps 636 mmHg 71%
    07:00 +18°C° 0 mm 1 mps 638 mmHg 64%
    08:00 +21°C° 0 mm 1 mps 639 mmHg 58%
    09:00 +23°C° 0 mm 1 mps 640 mmHg 51%
    10:00 +24°C° 0.1 mm 1 mps 640 mmHg 48%
    11:00 +25°C° 0.1 mm 2 mps 640 mmHg 45%
    12:00 +26°C° 0.1 mm 2 mps 641 mmHg 42%
    13:00 +25°C° 0.6 mm 2 mps 640 mmHg 50%
    14:00 +23°C° 0.6 mm 2 mps 639 mmHg 58%
    15:00 +22°C° 0.6 mm 1 mps 638 mmHg 65%
    16:00 +21°C° 0.4 mm 1 mps 638 mmHg 70%
    17:00 +20°C° 0.4 mm 1 mps 638 mmHg 74%
    18:00 +19°C° 0.4 mm 1 mps 638 mmHg 79%
    19:00 +18°C° 0.1 mm 1 mps 638 mmHg 80%
    20:00 +16°C° 0.1 mm 1 mps 638 mmHg 81%
    21:00 +15°C° 0.1 mm 1 mps 638 mmHg 83%
    22:00 +15°C° 0 mm 1 mps 638 mmHg 82%
    23:00 +15°C° 0 mm 1 mps 638 mmHg 81%
    Show more